星链-2654 (STARLINK-2654 )

导读

STARLINK-2654是美国太空探索技术公司SpaceX星链计划中的卫星,于2021年5月9日发射,属于星链低轨互联网卫星星座,主要为全球提供高速互联网接入服务。它运行在近地轨道,是星链星座扩容过程中的一环,推动了全球卫星互联网网络的覆盖与建设。

Basic Information
目录编号:
48454
目录名称:
STARLINK-2654
国际标识:
2021-040AC
轨道中心:
EARTH
卫星名称:
星链-2654
卫星全名:
星链-2654 (STARLINK-2654 )
卫星状态:
在轨 (已飞行1944 天)
发射日期:
2021-05-09 UTC
国别 :
美国 (US)
星等 :
--
Orbit Information
数据来源 国际轨道数据
星历时间: 2026-09-04T10:29:46+0800
9小时前
查看轨道信息
半长轴: 6848.884km
偏心率: 0.0001334
轨道倾角: 53.160°
近地点辐角 61.064°
升交点赤经 67.810°
平近点角 299.049°
近地点: 469.833km
远地点: 471.661km
周期: 94.013分钟
每日圈数: 15.316978
Detailed Information
固有亮度:
5
最大亮度:
2.5
卫星平台:
Starlink V1.0
覆盖范围:
全球
运营商:
太空探索技术公司
运营商所在国:
美国
制造商(研发单位):
太空探索技术公司
制造商所在国:
美国
使用方式:
暂无
Satellite Introduction
星链(Starlink)计划是由太空探索技术公司(SpaceX)提出的一个巨型低轨卫星互联网星座项目,计划在2019年至2024年间在太空搭建由约1.2万颗卫星组成的“星链”网络,其中1584颗将部署在地球上空550千米处的近地轨道,并从2020年开始工作。该卫星仍在工作。
2D Orbit Map
3D Orbit Map
Orbit Altitude Analysis Chart
Orbit Inclination Analysis Chart
Orbit Comprehensive Analysis Chart
View Comprehensive Chart
Conjunction Data List
Event ID Objects TCA Miss Dist (km) Collision Risk Probability Collision Risk Index (CRI) Action
CDM_260902-205103-910004-845423
2026-09-02T
20:51:46+0000
2.160 km
极远距离
1.721658E-6 低风险 0.4
CDM_260904-115804-845406-796321
2026-09-04T
11:58:38+0000
2.705 km
极远距离
1.535345E-6 低风险 0.39
CDM_260904-103804-845406-772621
2026-09-04T
10:38:23+0000
2.707 km
极远距离
1.455324E-6 低风险 0.38
CDM_260905-175004-845406-922021
2026-09-05T
17:50:08+0000
2.808 km
极远距离
1.439808E-6 低风险 0.38
CDM_260906-011204-845406-802021
2026-09-06T
01:12:07+0000
2.875 km
极远距离
1.363025E-6 低风险 0.38